Time,TemperatureF,DewpointF,PressureIn,WindDirection,WindDirectionDegrees,WindSpeedMPH,WindSpeedGustMPH,Humidity,HourlyPrecipIn,Conditions,Clouds,dailyrainin,SoftwareType,DateUTC
2013-02-19 00:00:00,36.6,27.4,30.26,South,180,0.0,1.0,69,0.00,,,0.01,Wunderground v.1.15,2013-02-19 05:00:00,
2013-02-19 00:05:00,36.5,27.6,30.26,South,180,0.0,1.0,70,0.00,,,0.00,Wunderground v.1.15,2013-02-19 05:05:00,
2013-02-19 00:10:00,36.3,27.4,30.26,South,180,0.0,1.0,70,0.00,,,0.00,Wunderground v.1.15,2013-02-19 05:10:00,
2013-02-19 00:15:00,36.1,27.3,30.25,South,180,0.0,1.0,70,0.00,,,0.00,Wunderground v.1.15,2013-02-19 05:15:00,
2013-02-19 00:20:00,36.0,27.2,30.25,South,180,0.0,1.0,70,0.00,,,0.00,Wunderground v.1.15,2013-02-19 05:20:00,
2013-02-19 00:25:00,35.8,27.3,30.25,South,180,0.0,1.0,71,0.00,,,0.00,Wunderground v.1.15,2013-02-19 05:25:00,
2013-02-19 00:35:00,35.5,27.4,30.24,South,180,0.0,1.0,72,0.00,,,0.00,Wunderground v.1.15,2013-02-19 05:35:00,
2013-02-19 00:40:00,35.3,27.2,30.24,South,180,0.0,1.0,72,0.00,,,0.00,Wunderground v.1.15,2013-02-19 05:40:00,
2013-02-19 00:45:00,35.2,27.1,30.24,South,180,0.0,1.0,72,0.00,,,0.00,Wunderground v.1.15,2013-02-19 05:45:00,
2013-02-19 00:50:00,35.1,27.3,30.24,South,180,0.0,1.0,73,0.00,,,0.00,Wunderground v.1.15,2013-02-19 05:50:00,
2013-02-19 00:55:00,35.0,27.2,30.23,South,180,0.0,1.0,73,0.00,,,0.00,Wunderground v.1.15,2013-02-19 05:55:00,
2013-02-19 01:00:00,34.9,27.1,30.23,South,180,0.0,1.0,73,0.00,,,0.00,Wunderground v.1.15,2013-02-19 06:00:00,
2013-02-19 01:05:00,34.8,27.0,30.23,South,180,0.0,1.0,73,0.00,,,0.00,Wunderground v.1.15,2013-02-19 06:05:00,
2013-02-19 01:15:00,34.7,27.3,30.23,South,180,0.0,1.0,74,0.00,,,0.00,Wunderground v.1.15,2013-02-19 06:15:00,
2013-02-19 01:20:00,34.6,27.2,30.23,South,180,0.0,1.0,74,0.00,,,0.00,Wunderground v.1.15,2013-02-19 06:20:00,
2013-02-19 01:25:00,34.4,27.0,30.23,South,180,0.0,1.0,74,0.00,,,0.00,Wunderground v.1.15,2013-02-19 06:25:00,
2013-02-19 01:30:00,34.4,27.3,30.23,South,180,0.0,1.0,75,0.00,,,0.00,Wunderground v.1.15,2013-02-19 06:30:00,
2013-02-19 01:35:00,34.4,27.3,30.23,South,180,0.0,1.0,75,0.00,,,0.00,Wunderground v.1.15,2013-02-19 06:35:00,
2013-02-19 01:40:00,34.4,27.3,30.22,South,180,0.0,1.0,75,0.00,,,0.00,Wunderground v.1.15,2013-02-19 06:40:00,
2013-02-19 01:45:00,34.4,27.3,30.22,South,180,0.0,1.0,75,0.00,,,0.00,Wunderground v.1.15,2013-02-19 06:45:00,
2013-02-19 01:50:00,34.2,27.4,30.22,South,180,0.0,1.0,76,0.00,,,0.00,Wunderground v.1.15,2013-02-19 06:50:00,
2013-02-19 01:55:00,34.1,27.3,30.22,South,180,0.0,1.0,76,0.00,,,0.00,Wunderground v.1.15,2013-02-19 06:55:00,
2013-02-19 02:00:00,34.1,27.3,30.21,South,180,0.0,1.0,76,0.00,,,0.00,Wunderground v.1.15,2013-02-19 07:00:00,
2013-02-19 02:10:00,34.0,27.5,30.21,South,180,0.0,1.0,77,0.00,,,0.00,Wunderground v.1.15,2013-02-19 07:10:00,
2013-02-19 02:15:00,33.9,27.4,30.21,South,180,0.0,1.0,77,0.00,,,0.00,Wunderground v.1.15,2013-02-19 07:15:00,
2013-02-19 02:20:00,34.0,27.5,30.21,South,180,0.0,1.0,77,0.00,,,0.00,Wunderground v.1.15,2013-02-19 07:20:00,
2013-02-19 02:25:00,34.0,27.5,30.20,South,180,0.0,1.0,77,0.00,,,0.00,Wunderground v.1.15,2013-02-19 07:25:00,
2013-02-19 02:30:00,34.0,27.5,30.20,South,180,0.0,1.0,77,0.00,,,0.00,Wunderground v.1.15,2013-02-19 07:30:00,
2013-02-19 02:35:00,33.9,27.4,30.20,South,180,0.0,1.0,77,0.00,,,0.00,Wunderground v.1.15,2013-02-19 07:35:00,
2013-02-19 02:45:00,33.9,27.4,30.20,South,180,0.0,1.0,77,0.00,,,0.00,Wunderground v.1.15,2013-02-19 07:45:00,
2013-02-19 02:50:00,33.8,27.7,30.19,South,180,0.0,1.0,78,0.00,,,0.00,Wunderground v.1.15,2013-02-19 07:50:00,
2013-02-19 02:55:00,33.8,27.7,30.19,South,180,0.0,1.0,78,0.00,,,0.00,Wunderground v.1.15,2013-02-19 07:55:00,
2013-02-19 03:00:00,33.7,27.6,30.19,South,180,0.0,1.0,78,0.00,,,0.00,Wunderground v.1.15,2013-02-19 08:00:00,
2013-02-19 03:05:00,33.6,27.8,30.19,South,180,0.0,1.0,79,0.00,,,0.00,Wunderground v.1.15,2013-02-19 08:05:00,
2013-02-19 03:15:00,33.5,27.7,30.18,South,180,0.0,1.0,79,0.00,,,0.00,Wunderground v.1.15,2013-02-19 08:15:00,
2013-02-19 03:20:00,33.5,28.0,30.18,South,180,0.0,1.0,80,0.00,,,0.00,Wunderground v.1.15,2013-02-19 08:20:00,
2013-02-19 03:25:00,33.5,28.0,30.18,South,180,0.0,1.0,80,0.00,,,0.00,Wunderground v.1.15,2013-02-19 08:25:00,
2013-02-19 03:30:00,33.5,28.0,30.17,South,180,0.0,1.0,80,0.00,,,0.00,Wunderground v.1.15,2013-02-19 08:30:00,
2013-02-19 03:35:00,33.5,28.0,30.17,South,180,0.0,1.0,80,0.00,,,0.00,Wunderground v.1.15,2013-02-19 08:35:00,
2013-02-19 03:40:00,33.4,28.2,30.17,South,180,0.0,1.0,81,0.00,,,0.00,Wunderground v.1.15,2013-02-19 08:40:00,
2013-02-19 03:50:00,33.4,28.2,30.17,South,180,0.0,1.0,81,0.00,,,0.00,Wunderground v.1.15,2013-02-19 08:50:00,
2013-02-19 03:55:00,33.3,28.1,30.16,South,180,0.0,1.0,81,0.00,,,0.00,Wunderground v.1.15,2013-02-19 08:55:00,
2013-02-19 04:00:00,33.2,28.0,30.16,South,180,0.0,1.0,81,0.00,,,0.00,Wunderground v.1.15,2013-02-19 09:00:00,
2013-02-19 04:05:00,33.2,28.0,30.15,South,180,0.0,1.0,81,0.00,,,0.00,Wunderground v.1.15,2013-02-19 09:05:00,
2013-02-19 04:10:00,33.2,28.3,30.15,South,180,0.0,1.0,82,0.00,,,0.00,Wunderground v.1.15,2013-02-19 09:10:00,
2013-02-19 04:20:00,33.1,28.2,30.15,South,180,0.0,1.0,82,0.00,,,0.00,Wunderground v.1.15,2013-02-19 09:20:00,
2013-02-19 04:25:00,33.1,28.2,30.15,South,180,0.0,1.0,82,0.00,,,0.00,Wunderground v.1.15,2013-02-19 09:25:00,
2013-02-19 04:35:00,33.0,28.1,30.15,South,180,0.0,1.0,82,0.00,,,0.00,Wunderground v.1.15,2013-02-19 09:35:00,
2013-02-19 04:40:00,33.0,28.1,30.15,South,180,0.0,1.0,82,0.00,,,0.00,Wunderground v.1.15,2013-02-19 09:40:00,
2013-02-19 04:50:00,33.0,28.1,30.15,South,180,0.0,1.0,82,0.00,,,0.00,Wunderground v.1.15,2013-02-19 09:50:00,
2013-02-19 04:55:00,33.0,28.1,30.14,South,180,0.0,1.0,82,0.00,,,0.00,Wunderground v.1.15,2013-02-19 09:55:00,
2013-02-19 05:00:00,33.0,28.4,30.14,South,180,0.0,1.0,83,0.00,,,0.00,Wunderground v.1.15,2013-02-19 10:00:00,
2013-02-19 05:05:00,33.0,28.4,30.14,South,180,0.0,1.0,83,0.00,,,0.00,Wunderground v.1.15,2013-02-19 10:05:00,
2013-02-19 05:10:00,33.0,28.4,30.14,South,180,0.0,1.0,83,0.00,,,0.00,Wunderground v.1.15,2013-02-19 10:10:00,
2013-02-19 05:15:00,33.0,28.4,30.13,South,180,0.0,1.0,83,0.00,,,0.00,Wunderground v.1.15,2013-02-19 10:15:00,
2013-02-19 05:25:00,33.1,28.8,30.13,South,180,0.0,1.0,84,0.00,,,0.00,Wunderground v.1.15,2013-02-19 10:25:00,
2013-02-19 05:30:00,33.1,28.8,30.13,South,180,0.0,1.0,84,0.00,,,0.00,Wunderground v.1.15,2013-02-19 10:30:00,
2013-02-19 05:35:00,33.2,28.9,30.13,South,180,0.0,1.0,84,0.00,,,0.00,Wunderground v.1.15,2013-02-19 10:35:00,
2013-02-19 05:40:00,33.2,28.9,30.13,South,180,0.0,1.0,84,0.00,,,0.00,Wunderground v.1.15,2013-02-19 10:40:00,
2013-02-19 05:45:00,33.2,28.9,30.13,South,180,0.0,1.0,84,0.00,,,0.00,Wunderground v.1.15,2013-02-19 10:45:00,
2013-02-19 05:55:00,33.2,28.9,30.12,South,180,0.0,1.0,84,0.00,,,0.00,Wunderground v.1.15,2013-02-19 10:55:00,
2013-02-19 06:00:00,33.2,28.9,30.12,South,180,0.0,1.0,84,0.00,,,0.00,Wunderground v.1.15,2013-02-19 11:00:00,
2013-02-19 06:05:00,33.2,28.9,30.12,South,180,0.0,1.0,84,0.00,,,0.00,Wunderground v.1.15,2013-02-19 11:05:00,
2013-02-19 06:10:00,33.2,28.9,30.12,South,180,0.0,1.0,84,0.00,,,0.00,Wunderground v.1.15,2013-02-19 11:10:00,
2013-02-19 06:15:00,33.1,28.8,30.12,South,180,0.0,1.0,84,0.00,,,0.00,Wunderground v.1.15,2013-02-19 11:15:00,
2013-02-19 06:20:00,33.1,28.8,30.11,South,180,0.0,1.0,84,0.00,,,0.00,Wunderground v.1.15,2013-02-19 11:20:00,
2013-02-19 06:30:00,33.0,28.7,30.11,South,180,0.0,1.0,84,0.00,,,0.00,Wunderground v.1.15,2013-02-19 11:30:00,
2013-02-19 06:35:00,32.9,28.6,30.11,South,180,0.0,1.0,84,0.00,,,0.00,Wunderground v.1.15,2013-02-19 11:35:00,
2013-02-19 06:40:00,32.9,28.6,30.11,South,180,0.0,1.0,84,0.00,,,0.00,Wunderground v.1.15,2013-02-19 11:40:00,
2013-02-19 06:45:00,32.9,28.6,30.12,South,180,0.0,1.0,84,0.00,,,0.00,Wunderground v.1.15,2013-02-19 11:45:00,
2013-02-19 06:50:00,32.9,28.9,30.11,South,180,0.0,1.0,85,0.00,,,0.00,Wunderground v.1.15,2013-02-19 11:50:00,
2013-02-19 06:55:00,32.9,28.9,30.11,South,180,0.0,1.0,85,0.00,,,0.00,Wunderground v.1.15,2013-02-19 11:55:00,
2013-02-19 07:00:00,33.0,29.0,30.10,South,180,0.0,1.0,85,0.00,,,0.00,Wunderground v.1.15,2013-02-19 12:00:00,
2013-02-19 07:05:00,33.0,29.0,30.11,South,180,0.0,1.0,85,0.00,,,0.00,Wunderground v.1.15,2013-02-19 12:05:00,
2013-02-19 07:10:00,33.1,29.1,30.11,South,180,0.0,1.0,85,0.00,,,0.00,Wunderground v.1.15,2013-02-19 12:10:00,
2013-02-19 07:15:00,33.2,29.5,30.11,South,180,0.0,1.0,86,0.00,,,0.00,Wunderground v.1.15,2013-02-19 12:15:00,
2013-02-19 07:20:00,33.3,29.6,30.10,South,180,0.0,1.0,86,0.00,,,0.00,Wunderground v.1.15,2013-02-19 12:20:00,
2013-02-19 07:30:00,33.6,29.9,30.11,South,180,0.0,1.0,86,0.00,,,0.00,Wunderground v.1.15,2013-02-19 12:30:00,
2013-02-19 07:35:00,33.8,30.1,30.11,South,180,0.0,1.0,86,0.00,,,0.00,Wunderground v.1.15,2013-02-19 12:35:00,
2013-02-19 07:40:00,34.0,30.3,30.11,South,180,0.0,1.0,86,0.00,,,0.00,Wunderground v.1.15,2013-02-19 12:40:00,
2013-02-19 07:45:00,34.2,30.4,30.11,South,180,0.0,1.0,86,0.00,,,0.00,Wunderground v.1.15,2013-02-19 12:45:00,
2013-02-19 07:50:00,34.4,30.6,30.11,South,180,0.0,1.0,86,0.00,,,0.00,Wunderground v.1.15,2013-02-19 12:50:00,
2013-02-19 07:55:00,34.4,30.6,30.11,South,180,0.0,1.0,86,0.00,,,0.00,Wunderground v.1.15,2013-02-19 12:55:00,
2013-02-19 08:05:00,34.8,31.0,30.11,South,180,0.0,1.0,86,0.00,,,0.00,Wunderground v.1.15,2013-02-19 13:05:00,
2013-02-19 08:10:00,35.0,31.2,30.11,South,180,0.0,1.0,86,0.00,,,0.00,Wunderground v.1.15,2013-02-19 13:10:00,
2013-02-19 08:15:00,35.2,31.4,30.11,South,180,0.0,1.0,86,0.00,,,0.00,Wunderground v.1.15,2013-02-19 13:15:00,
2013-02-19 08:20:00,35.3,31.5,30.11,South,180,0.0,1.0,86,0.00,,,0.00,Wunderground v.1.15,2013-02-19 13:20:00,
2013-02-19 08:25:00,35.6,31.8,30.10,South,180,0.0,1.0,86,0.00,,,0.00,Wunderground v.1.15,2013-02-19 13:25:00,
2013-02-19 08:35:00,36.0,32.2,30.10,South,180,0.0,1.0,86,0.00,,,0.00,Wunderground v.1.15,2013-02-19 13:35:00,
2013-02-19 08:40:00,36.2,32.4,30.09,South,180,0.0,1.0,86,0.00,,,0.00,Wunderground v.1.15,2013-02-19 13:40:00,
2013-02-19 08:45:00,36.4,32.6,30.08,South,180,0.0,1.0,86,0.00,,,0.00,Wunderground v.1.15,2013-02-19 13:45:00,
2013-02-19 08:50:00,36.6,33.1,30.08,South,180,0.0,1.0,87,0.00,,,0.00,Wunderground v.1.15,2013-02-19 13:50:00,
2013-02-19 08:55:00,36.9,33.4,30.08,South,180,0.0,1.0,87,0.00,,,0.00,Wunderground v.1.15,2013-02-19 13:55:00,
2013-02-19 09:00:00,37.2,33.7,30.08,South,180,0.0,1.0,87,0.00,,,0.00,Wunderground v.1.15,2013-02-19 14:00:00,
2013-02-19 09:10:00,37.8,34.6,30.07,South,180,0.0,2.0,88,0.00,,,0.00,Wunderground v.1.15,2013-02-19 14:10:00,
2013-02-19 09:15:00,38.2,35.0,30.07,South,180,0.0,2.0,88,0.00,,,0.00,Wunderground v.1.15,2013-02-19 14:15:00,
2013-02-19 09:20:00,38.6,35.4,30.07,South,180,0.0,1.0,88,0.00,,,0.00,Wunderground v.1.15,2013-02-19 14:20:00,
2013-02-19 09:25:00,39.1,35.8,30.07,South,180,0.0,1.0,88,0.00,,,0.00,Wunderground v.1.15,2013-02-19 14:25:00,
2013-02-19 09:30:00,39.5,36.2,30.07,South,180,0.0,1.0,88,0.00,,,0.00,Wunderground v.1.15,2013-02-19 14:30:00,
2013-02-19 09:35:00,40.0,37.0,30.07,South,180,0.0,1.0,89,0.00,,,0.00,Wunderground v.1.15,2013-02-19 14:35:00,
2013-02-19 09:40:00,40.6,37.6,30.06,South,180,0.0,1.0,89,0.00,,,0.00,Wunderground v.1.15,2013-02-19 14:40:00,
2013-02-19 09:45:00,41.2,38.2,30.06,South,180,0.0,1.0,89,0.00,,,0.00,Wunderground v.1.15,2013-02-19 14:45:00,
2013-02-19 09:50:00,41.8,38.5,30.06,South,179,0.0,1.0,88,0.00,,,0.00,Wunderground v.1.15,2013-02-19 14:50:00,
2013-02-19 09:55:00,42.4,39.1,30.06,South,179,0.0,1.0,88,0.00,,,0.00,Wunderground v.1.15,2013-02-19 14:55:00,
2013-02-19 10:00:00,43.1,39.8,30.06,South,180,0.0,1.0,88,0.00,,,0.00,Wunderground v.1.15,2013-02-19 15:00:00,
2013-02-19 10:10:00,44.3,40.7,30.06,South,180,0.0,1.0,87,0.00,,,0.00,Wunderground v.1.15,2013-02-19 15:10:00,
2013-02-19 10:15:00,44.8,40.9,30.05,South,180,0.0,1.0,86,0.00,,,0.00,Wunderground v.1.15,2013-02-19 15:15:00,
2013-02-19 10:20:00,45.2,41.0,30.05,South,179,0.0,1.0,85,0.00,,,0.00,Wunderground v.1.15,2013-02-19 15:20:00,
2013-02-19 10:25:00,45.6,41.4,30.05,South,180,0.0,1.0,85,0.00,,,0.00,Wunderground v.1.15,2013-02-19 15:25:00,
2013-02-19 10:30:00,45.9,41.6,30.05,South,180,0.0,1.0,85,0.00,,,0.00,Wunderground v.1.15,2013-02-19 15:30:00,
2013-02-19 10:35:00,46.1,42.1,30.05,South,179,0.0,1.0,86,0.00,,,0.00,Wunderground v.1.15,2013-02-19 15:35:00,
2013-02-19 10:45:00,46.5,42.8,30.05,South,180,0.0,1.0,87,0.00,,,0.00,Wunderground v.1.15,2013-02-19 15:45:00,
2013-02-19 10:50:00,46.7,43.0,30.05,South,179,0.0,1.0,87,0.00,,,0.00,Wunderground v.1.15,2013-02-19 15:50:00,
2013-02-19 10:55:00,46.9,43.5,30.05,South,180,0.0,1.0,88,0.00,,,0.00,Wunderground v.1.15,2013-02-19 15:55:00,
2013-02-19 11:00:00,47.2,44.1,30.05,South,180,0.0,1.0,89,0.00,,,0.00,Wunderground v.1.15,2013-02-19 16:00:00,
2013-02-19 11:05:00,47.4,44.3,30.05,South,179,0.0,1.0,89,0.00,,,0.00,Wunderground v.1.15,2013-02-19 16:05:00,
2013-02-19 11:15:00,47.9,45.1,30.04,ESE,106,0.0,1.0,90,0.00,,,0.01,Wunderground v.1.15,2013-02-19 16:15:00,
2013-02-19 11:20:00,48.1,45.3,30.04,SSW,192,0.0,1.0,90,0.06,,,0.02,Wunderground v.1.15,2013-02-19 16:20:00,
2013-02-19 11:25:00,48.2,45.7,30.04,SSW,192,0.0,1.0,91,0.09,,,0.03,Wunderground v.1.15,2013-02-19 16:25:00,
2013-02-19 11:30:00,48.3,45.8,30.03,South,191,0.0,1.0,91,0.12,,,0.04,Wunderground v.1.15,2013-02-19 16:30:00,
2013-02-19 11:35:00,48.3,45.8,30.03,South,191,0.0,1.0,91,0.13,,,0.05,Wunderground v.1.15,2013-02-19 16:35:00,
2013-02-19 11:40:00,48.4,46.2,30.03,SSW,192,0.0,1.0,92,0.07,,,0.05,Wunderground v.1.15,2013-02-19 16:40:00,
2013-02-19 11:45:00,48.4,46.2,30.03,WSW,242,0.0,1.0,92,0.07,,,0.06,Wunderground v.1.15,2013-02-19 16:45:00,
2013-02-19 11:50:00,48.5,46.6,30.02,SSE,155,0.0,1.0,93,0.06,,,0.06,Wunderground v.1.15,2013-02-19 16:50:00,
2013-02-19 11:55:00,48.6,46.7,30.02,SE,140,0.0,1.0,93,0.04,,,0.06,Wunderground v.1.15,2013-02-19 16:55:00,
2013-02-19 12:00:00,48.8,46.9,30.01,SSE,165,0.0,1.0,93,0.04,,,0.07,Wunderground v.1.15,2013-02-19 17:00:00,
2013-02-19 12:05:00,49.0,47.3,30.01,South,172,0.0,1.0,94,0.04,,,0.07,Wunderground v.1.15,2013-02-19 17:05:00,
2013-02-19 12:10:00,49.2,47.5,30.00,West,268,0.0,1.0,94,0.04,,,0.07,Wunderground v.1.15,2013-02-19 17:10:00,
2013-02-19 12:20:00,49.8,48.4,30.00,SSE,159,0.0,1.0,95,0.00,,,0.07,Wunderground v.1.15,2013-02-19 17:20:00,
2013-02-19 12:25:00,50.2,48.8,29.99,SE,133,0.0,1.0,95,0.00,,,0.08,Wunderground v.1.15,2013-02-19 17:25:00,
2013-02-19 12:30:00,50.4,49.0,29.99,South,185,0.0,1.0,95,0.00,,,0.08,Wunderground v.1.15,2013-02-19 17:30:00,
2013-02-19 12:35:00,50.6,49.2,29.98,South,178,0.0,1.0,95,0.00,,,0.08,Wunderground v.1.15,2013-02-19 17:35:00,
2013-02-19 12:40:00,50.9,49.5,29.97,South,169,0.0,1.0,95,0.00,,,0.08,Wunderground v.1.15,2013-02-19 17:40:00,
2013-02-19 12:50:00,51.4,50.0,29.97,SSE,163,1.0,3.0,95,0.00,,,0.08,Wunderground v.1.15,2013-02-19 17:50:00,
2013-02-19 12:55:00,51.7,50.3,29.96,South,169,1.0,3.0,95,0.00,,,0.08,Wunderground v.1.15,2013-02-19 17:55:00,
2013-02-19 13:00:00,51.9,50.5,29.96,South,179,1.0,1.0,95,0.00,,,0.08,Wunderground v.1.15,2013-02-19 18:00:00,
2013-02-19 13:05:00,52.1,50.4,29.95,SE,142,0.0,1.0,94,0.00,,,0.08,Wunderground v.1.15,2013-02-19 18:05:00,
2013-02-19 13:10:00,52.3,50.6,29.95,SE,126,1.0,1.0,94,0.00,,,0.08,Wunderground v.1.15,2013-02-19 18:10:00,
2013-02-19 13:15:00,52.5,50.5,29.94,SSW,203,1.0,1.0,93,0.00,,,0.08,Wunderground v.1.15,2013-02-19 18:15:00,
2013-02-19 13:25:00,52.9,50.6,29.93,South,169,1.0,1.0,92,0.00,,,0.08,Wunderground v.1.15,2013-02-19 18:25:00,
2013-02-19 13:30:00,53.1,50.5,29.93,SSE,165,1.0,1.0,91,0.00,,,0.08,Wunderground v.1.15,2013-02-19 18:30:00,
2013-02-19 13:35:00,53.3,50.7,29.92,South,172,1.0,1.0,91,0.00,,,0.08,Wunderground v.1.15,2013-02-19 18:35:00,
2013-02-19 13:40:00,53.3,50.7,29.92,SSW,192,1.0,1.0,91,0.00,,,0.08,Wunderground v.1.15,2013-02-19 18:40:00,
2013-02-19 13:45:00,53.3,50.7,29.92,North,5,1.0,1.0,91,0.00,,,0.08,Wunderground v.1.15,2013-02-19 18:45:00,
2013-02-19 13:55:00,53.4,50.8,29.91,South,175,1.0,3.0,91,0.00,,,0.08,Wunderground v.1.15,2013-02-19 18:55:00,
2013-02-19 14:00:00,53.5,50.9,29.91,South,182,1.0,1.0,91,0.00,,,0.08,Wunderground v.1.15,2013-02-19 19:00:00,
2013-02-19 14:05:00,53.6,50.7,29.90,SSE,153,1.0,1.0,90,0.00,,,0.08,Wunderground v.1.15,2013-02-19 19:05:00,
2013-02-19 14:10:00,53.7,51.1,29.90,SSE,159,1.0,1.0,91,0.00,,,0.08,Wunderground v.1.15,2013-02-19 19:10:00,
2013-02-19 14:15:00,53.8,50.9,29.89,South,172,1.0,1.0,90,0.00,,,0.08,Wunderground v.1.15,2013-02-19 19:15:00,
2013-02-19 14:25:00,54.1,51.2,29.89,South,178,1.0,3.0,90,0.00,,,0.08,Wunderground v.1.15,2013-02-19 19:25:00,
2013-02-19 14:30:00,54.1,51.2,29.89,South,171,1.0,1.0,90,0.00,,,0.08,Wunderground v.1.15,2013-02-19 19:30:00,
2013-02-19 14:35:00,54.1,51.5,29.89,South,179,1.0,1.0,91,0.00,,,0.08,Wunderground v.1.15,2013-02-19 19:35:00,
2013-02-19 14:40:00,53.9,51.3,29.89,ESE,113,1.0,1.0,91,0.00,,,0.08,Wunderground v.1.15,2013-02-19 19:40:00,
2013-02-19 14:45:00,53.8,51.2,29.89,South,180,1.0,1.0,91,0.00,,,0.08,Wunderground v.1.15,2013-02-19 19:45:00,
2013-02-19 14:50:00,53.6,51.3,29.89,SSW,199,1.0,1.0,92,0.00,,,0.09,Wunderground v.1.15,2013-02-19 19:50:00,
2013-02-19 15:00:00,53.3,51.3,29.89,SSE,161,1.0,1.0,93,0.00,,,0.09,Wunderground v.1.15,2013-02-19 20:00:00,
2013-02-19 15:05:00,53.2,51.2,29.89,South,178,0.0,1.0,93,0.00,,,0.09,Wunderground v.1.15,2013-02-19 20:05:00,
2013-02-19 15:15:00,53.1,51.4,29.88,SSW,206,0.0,1.0,94,0.00,,,0.09,Wunderground v.1.15,2013-02-19 20:15:00,
2013-02-19 15:20:00,53.1,51.4,29.88,SSE,167,0.0,2.0,94,0.00,,,0.09,Wunderground v.1.15,2013-02-19 20:20:00,
2013-02-19 15:25:00,53.0,51.3,29.88,SE,137,0.0,2.0,94,0.00,,,0.09,Wunderground v.1.15,2013-02-19 20:25:00,
2013-02-19 15:30:00,53.0,51.6,29.87,SSE,159,0.0,2.0,95,0.00,,,0.09,Wunderground v.1.15,2013-02-19 20:30:00,
2013-02-19 15:35:00,53.0,51.6,29.87,South,169,0.0,2.0,95,0.00,,,0.09,Wunderground v.1.15,2013-02-19 20:35:00,
2013-02-19 15:40:00,53.0,51.6,29.87,South,177,0.0,1.0,95,0.00,,,0.09,Wunderground v.1.15,2013-02-19 20:40:00,
2013-02-19 15:45:00,53.0,51.6,29.87,South,182,0.0,1.0,95,0.00,,,0.09,Wunderground v.1.15,2013-02-19 20:45:00,
2013-02-19 15:50:00,52.9,51.5,29.88,South,178,0.0,1.0,95,0.00,,,0.09,Wunderground v.1.15,2013-02-19 20:50:00,
2013-02-19 16:00:00,52.8,51.4,29.87,SSE,156,0.0,1.0,95,0.00,,,0.09,Wunderground v.1.15,2013-02-19 21:00:00,
2013-02-19 16:05:00,52.8,51.4,29.87,SSE,160,0.0,1.0,95,0.00,,,0.09,Wunderground v.1.15,2013-02-19 21:05:00,
2013-02-19 16:15:00,52.7,51.3,29.86,SE,134,0.0,1.0,95,0.00,,,0.09,Wunderground v.1.15,2013-02-19 21:15:00,
2013-02-19 16:25:00,52.7,51.3,29.86,South,174,0.0,0.0,95,0.00,,,0.09,Wunderground v.1.15,2013-02-19 21:25:00,
2013-02-19 16:30:00,52.6,51.2,29.86,South,179,0.0,0.0,95,0.00,,,0.09,Wunderground v.1.15,2013-02-19 21:30:00,
2013-02-19 16:35:00,52.5,51.1,29.86,South,169,0.0,0.0,95,0.00,,,0.09,Wunderground v.1.15,2013-02-19 21:35:00,
2013-02-19 16:40:00,52.5,51.1,29.86,South,170,0.0,0.0,95,0.00,,,0.09,Wunderground v.1.15,2013-02-19 21:40:00,
2013-02-19 16:45:00,52.4,51.0,29.86,SSW,194,0.0,0.0,95,0.00,,,0.09,Wunderground v.1.15,2013-02-19 21:45:00,
2013-02-19 16:50:00,52.3,50.9,29.86,SSE,155,0.0,0.0,95,0.00,,,0.09,Wunderground v.1.15,2013-02-19 21:50:00,
2013-02-19 16:55:00,52.3,51.2,29.86,SE,137,0.0,1.0,96,0.00,,,0.09,Wunderground v.1.15,2013-02-19 21:55:00,
2013-02-19 17:00:00,52.2,51.1,29.86,SSE,151,0.0,1.0,96,0.00,,,0.09,Wunderground v.1.15,2013-02-19 22:00:00,
2013-02-19 17:05:00,52.2,50.8,29.86,South,184,0.0,1.0,95,0.00,,,0.09,Wunderground v.1.15,2013-02-19 22:05:00,
2013-02-19 17:10:00,52.2,50.8,29.86,SSE,152,0.0,0.0,95,0.00,,,0.09,Wunderground v.1.15,2013-02-19 22:10:00,
2013-02-19 17:15:00,52.2,50.8,29.86,SE,128,0.0,0.0,95,0.00,,,0.09,Wunderground v.1.15,2013-02-19 22:15:00,
2013-02-19 17:25:00,52.2,50.8,29.87,South,182,0.0,2.0,95,0.00,,,0.09,Wunderground v.1.15,2013-02-19 22:25:00,
2013-02-19 17:30:00,52.2,50.8,29.87,SSE,154,0.0,2.0,95,0.00,,,0.09,Wunderground v.1.15,2013-02-19 22:30:00,
2013-02-19 17:35:00,52.1,50.4,29.87,SSE,152,0.0,2.0,94,0.00,,,0.09,Wunderground v.1.15,2013-02-19 22:35:00,
2013-02-19 17:40:00,52.1,50.4,29.87,SW,227,0.0,2.0,94,0.00,,,0.09,Wunderground v.1.15,2013-02-19 22:40:00,
2013-02-19 17:45:00,52.1,50.4,29.87,SW,227,0.0,2.0,94,0.00,,,0.09,Wunderground v.1.15,2013-02-19 22:45:00,
2013-02-19 17:50:00,52.1,50.4,29.87,SW,227,0.0,2.0,94,0.00,,,0.09,Wunderground v.1.15,2013-02-19 22:50:00,
2013-02-19 18:00:00,52.0,50.0,29.87,East,98,0.0,2.0,93,0.00,,,0.09,Wunderground v.1.15,2013-02-19 23:00:00,
2013-02-19 18:05:00,51.9,49.9,29.87,East,98,0.0,2.0,93,0.00,,,0.09,Wunderground v.1.15,2013-02-19 23:05:00,
2013-02-19 18:10:00,51.9,49.9,29.88,ESE,119,0.0,2.0,93,0.00,,,0.09,Wunderground v.1.15,2013-02-19 23:10:00,
2013-02-19 18:15:00,51.8,49.8,29.88,South,182,0.0,2.0,93,0.00,,,0.09,Wunderground v.1.15,2013-02-19 23:15:00,
2013-02-19 18:20:00,51.7,49.7,29.89,South,180,0.0,2.0,93,0.00,,,0.09,Wunderground v.1.15,2013-02-19 23:20:00,
2013-02-19 18:25:00,51.7,49.7,29.89,South,188,0.0,2.0,93,0.00,,,0.09,Wunderground v.1.15,2013-02-19 23:25:00,
2013-02-19 18:35:00,51.6,49.6,29.90,NNE,18,0.0,2.0,93,0.00,,,0.09,Wunderground v.1.15,2013-02-19 23:35:00,
2013-02-19 18:40:00,51.5,49.3,29.90,WSW,244,0.0,2.0,92,0.00,,,0.09,Wunderground v.1.15,2013-02-19 23:40:00,
2013-02-19 18:45:00,51.3,48.8,29.90,North,10,0.0,2.0,91,0.00,,,0.09,Wunderground v.1.15,2013-02-19 23:45:00,
2013-02-19 18:50:00,51.2,48.7,29.91,SSW,194,0.0,2.0,91,0.00,,,0.09,Wunderground v.1.15,2013-02-19 23:50:00,
2013-02-19 18:55:00,51.1,48.3,29.91,South,188,0.0,2.0,90,0.00,,,0.09,Wunderground v.1.15,2013-02-19 23:55:00,
2013-02-19 19:05:00,50.8,47.7,29.91,South,169,0.0,2.0,89,0.00,,,0.09,Wunderground v.1.15,2013-02-20 00:05:00,
2013-02-19 19:10:00,50.7,47.6,29.91,SSE,161,0.0,2.0,89,0.00,,,0.09,Wunderground v.1.15,2013-02-20 00:10:00,
2013-02-19 19:15:00,50.5,47.4,29.91,South,175,0.0,2.0,89,0.00,,,0.09,Wunderground v.1.15,2013-02-20 00:15:00,
2013-02-19 19:20:00,50.4,47.3,29.92,SSE,165,0.0,2.0,89,0.00,,,0.09,Wunderground v.1.15,2013-02-20 00:20:00,
2013-02-19 19:25:00,50.3,46.9,29.92,SSE,164,0.0,2.0,88,0.00,,,0.09,Wunderground v.1.15,2013-02-20 00:25:00,
2013-02-19 19:30:00,50.2,46.8,29.92,West,261,0.0,2.0,88,0.00,,,0.09,Wunderground v.1.15,2013-02-20 00:30:00,
2013-02-19 19:40:00,50.0,46.9,29.92,SW,220,0.0,2.0,89,0.00,,,0.09,Wunderground v.1.15,2013-02-20 00:40:00,
2013-02-19 19:45:00,49.9,46.8,29.93,East,82,0.0,2.0,89,0.00,,,0.09,Wunderground v.1.15,2013-02-20 00:45:00,
2013-02-19 19:50:00,49.8,46.7,29.93,NNE,17,0.0,2.0,89,0.00,,,0.09,Wunderground v.1.15,2013-02-20 00:50:00,
2013-02-19 19:55:00,49.8,46.7,29.93,NNE,13,0.0,2.0,89,0.00,,,0.09,Wunderground v.1.15,2013-02-20 00:55:00,
2013-02-19 20:00:00,49.8,46.7,29.93,SE,132,0.0,2.0,89,0.00,,,0.09,Wunderground v.1.15,2013-02-20 01:00:00,
2013-02-19 20:10:00,49.6,46.5,29.94,SE,132,0.0,2.0,89,0.00,,,0.09,Wunderground v.1.15,2013-02-20 01:10:00,
2013-02-19 20:15:00,49.5,46.4,29.94,NNE,15,0.0,2.0,89,0.00,,,0.09,Wunderground v.1.15,2013-02-20 01:15:00,
2013-02-19 20:20:00,49.3,46.2,29.94,NNE,15,0.0,2.0,89,0.00,,,0.09,Wunderground v.1.15,2013-02-20 01:20:00,
2013-02-19 20:25:00,49.2,46.1,29.95,NNE,15,0.0,2.0,89,0.00,,,0.09,Wunderground v.1.15,2013-02-20 01:25:00,
2013-02-19 20:30:00,49.0,45.9,29.95,NNE,15,0.0,2.0,89,0.00,,,0.09,Wunderground v.1.15,2013-02-20 01:30:00,
2013-02-19 20:35:00,48.8,45.7,29.95,NNE,15,0.0,2.0,89,0.00,,,0.09,Wunderground v.1.15,2013-02-20 01:35:00,
2013-02-19 20:45:00,48.6,45.5,29.95,NNE,15,0.0,2.0,89,0.00,,,0.09,Wunderground v.1.15,2013-02-20 01:45:00,
2013-02-19 20:50:00,48.5,45.4,29.94,NNE,15,0.0,2.0,89,0.00,,,0.09,Wunderground v.1.15,2013-02-20 01:50:00,
2013-02-19 20:55:00,48.4,45.3,29.95,NNE,15,0.0,2.0,89,0.00,,,0.09,Wunderground v.1.15,2013-02-20 01:55:00,
2013-02-19 21:00:00,48.3,45.2,29.95,NNE,15,0.0,2.0,89,0.00,,,0.09,Wunderground v.1.15,2013-02-20 02:00:00,
2013-02-19 21:05:00,48.2,45.1,29.95,NNE,16,0.0,2.0,89,0.00,,,0.09,Wunderground v.1.15,2013-02-20 02:05:00,
2013-02-19 21:15:00,47.9,44.8,29.95,NNE,15,0.0,2.0,89,0.00,,,0.09,Wunderground v.1.15,2013-02-20 02:15:00,
2013-02-19 21:20:00,47.8,44.7,29.95,NNE,15,0.0,2.0,89,0.00,,,0.09,Wunderground v.1.15,2013-02-20 02:20:00,
2013-02-19 21:25:00,47.6,44.5,29.95,NNE,16,0.0,2.0,89,0.00,,,0.09,Wunderground v.1.15,2013-02-20 02:25:00,
2013-02-19 21:30:00,47.4,44.3,29.95,NNE,16,0.0,2.0,89,0.00,,,0.09,Wunderground v.1.15,2013-02-20 02:30:00,
2013-02-19 21:35:00,47.1,44.0,29.95,NNE,15,0.0,2.0,89,0.00,,,0.09,Wunderground v.1.15,2013-02-20 02:35:00,
2013-02-19 21:40:00,46.9,43.8,29.95,NNE,16,0.0,2.0,89,0.00,,,0.09,Wunderground v.1.15,2013-02-20 02:40:00,
2013-02-19 21:50:00,46.4,43.3,29.95,NNE,16,0.0,2.0,89,0.00,,,0.09,Wunderground v.1.15,2013-02-20 02:50:00,
2013-02-19 21:55:00,46.2,43.1,29.95,NNE,15,0.0,2.0,89,0.00,,,0.09,Wunderground v.1.15,2013-02-20 02:55:00,
2013-02-19 22:00:00,46.0,43.2,29.95,NNE,15,0.0,2.0,90,0.00,,,0.09,Wunderground v.1.15,2013-02-20 03:00:00,
2013-02-19 22:05:00,45.7,42.9,29.95,NNE,16,0.0,2.0,90,0.00,,,0.09,Wunderground v.1.15,2013-02-20 03:05:00,
2013-02-19 22:10:00,45.5,42.7,29.95,NNE,16,0.0,2.0,90,0.00,,,0.09,Wunderground v.1.15,2013-02-20 03:10:00,
2013-02-19 22:20:00,45.1,42.3,29.95,NNE,15,0.0,2.0,90,0.00,,,0.09,Wunderground v.1.15,2013-02-20 03:20:00,
2013-02-19 22:25:00,45.0,42.2,29.95,NNE,16,0.0,2.0,90,0.00,,,0.09,Wunderground v.1.15,2013-02-20 03:25:00,
2013-02-19 22:30:00,44.7,41.9,29.95,NNE,16,0.0,2.0,90,0.00,,,0.09,Wunderground v.1.15,2013-02-20 03:30:00,
2013-02-19 22:35:00,44.5,42.0,29.95,NNE,15,0.0,2.0,91,0.00,,,0.09,Wunderground v.1.15,2013-02-20 03:35:00,
2013-02-19 22:40:00,44.3,41.8,29.95,NNE,16,0.0,2.0,91,0.00,,,0.09,Wunderground v.1.15,2013-02-20 03:40:00,
2013-02-19 22:45:00,44.1,41.6,29.95,NNE,16,0.0,2.0,91,0.00,,,0.09,Wunderground v.1.15,2013-02-20 03:45:00,
2013-02-19 22:55:00,43.7,41.2,29.95,NNE,15,0.0,2.0,91,0.00,,,0.09,Wunderground v.1.15,2013-02-20 03:55:00,
2013-02-19 23:00:00,43.6,41.1,29.95,NNE,15,0.0,2.0,91,0.00,,,0.09,Wunderground v.1.15,2013-02-20 04:00:00,
2013-02-19 23:05:00,43.4,40.9,29.95,NNE,16,0.0,2.0,91,0.00,,,0.09,Wunderground v.1.15,2013-02-20 04:05:00,
2013-02-19 23:10:00,43.3,41.1,29.95,NNE,16,0.0,2.0,92,0.00,,,0.09,Wunderground v.1.15,2013-02-20 04:10:00,
2013-02-19 23:15:00,43.2,41.0,29.95,NNE,15,0.0,2.0,92,0.00,,,0.09,Wunderground v.1.15,2013-02-20 04:15:00,
2013-02-19 23:25:00,42.9,40.7,29.95,NNE,16,0.0,2.0,92,0.00,,,0.09,Wunderground v.1.15,2013-02-20 04:25:00,
2013-02-19 23:30:00,42.8,40.6,29.95,NNE,16,0.0,2.0,92,0.00,,,0.09,Wunderground v.1.15,2013-02-20 04:30:00,
2013-02-19 23:35:00,42.7,40.5,29.95,NNE,15,0.0,2.0,92,0.00,,,0.09,Wunderground v.1.15,2013-02-20 04:35:00,
2013-02-19 23:40:00,42.6,40.4,29.95,NNE,16,0.0,2.0,92,0.00,,,0.09,Wunderground v.1.15,2013-02-20 04:40:00,
2013-02-19 23:45:00,42.5,40.3,29.95,NNE,16,0.0,2.0,92,0.00,,,0.09,Wunderground v.1.15,2013-02-20 04:45:00,
2013-02-19 23:50:00,42.4,40.5,29.95,NNE,16,0.0,2.0,93,0.00,,,0.09,Wunderground v.1.15,2013-02-20 04:50:00,